Regional Weather Roundup
Issued by NWS Goodland, KS

Home | Current Version | Previous Version | Text Only | Print | Product List | Glossary On
Versions: 1 2 3 4 5 6 7 8 9 10 11 12 13 14 15 16 17 18 19 20 21 22 23 24 25 26 27 28 29 30 31 32 33 34 35 36 37 38 39 40 41 42 43 44 45 46 47 48 49 50
000
ASUS43 KGLD 011408
RWRGLD

GOODLAND FORECAST AREA HOURLY WEATHER ROUNDUP
NATIONAL WEATHER SERVICE GOODLAND KS
800 AM MDT SUN MAY 01 2016

...OFFICIAL OBSERVATIONS...

CITY           SKY/WX    TMP DP  RH WIND       PRES   REMARKS
GOODLAND KS    MIX PCPN  35  34  96 N18       30.21R FOG
HILL CITY KS   CLOUDY    41  38  89 N18       30.15R
IMPERIAL NEB   CLOUDY    40  36  86 N18       30.23R
MCCOOK NEB     CLOUDY    40  37  89 N14       30.18R
AKRON CO       CLOUDY    33  31  92 NW12      30.28R
BURLINGTON CO  CLOUDY    36  32  85 N25G38    30.19S
LIMON CO       CLOUDY    32  31  96 N28       30.24R FOG     WCI  18
$$

...UNOFFICIAL OBSERVATIONS...

CITY           SKY/WX    TMP DP  RH WIND       PRES   REMARKS
COLBY KS       DRIZZLE   37  37 100 NW15      30.20R
LENORA KS        N/A     39  32  76 MISG        N/A
NORTON KS      CLOUDY    39  34  81 NW17      30.15R
SHARON SPRINGS   N/A     37  34  89 N20G26      N/A
TRIBUNE KS     CLOUDY    39  34  81 N20G26    30.21R
KIT CARSON CO    N/A     35  32  89 MISG        N/A
YUMA CO          N/A     34  32  94 N9          N/A
$$




USA.gov is the U.S. government's official web portal to all federal, state and local government web resources and services.